sat.trackr.live / text

‹ back to catalog

KUIPER-00102

NORAD 65140 · 2025-171J

PAYLOAD ACTIVE UNKNOWN

§ Identity

Operator
Country
US
Launch date
2025-08-11
Launch site
AFETR
Launch vehicle
Mass (kg)
RCS (m²)

External: N2YO · Heavens-Above · Gunter

§ Orbital elements

Epoch: 2026-09-21T18:56:48.251040Z

Period
97.30 min
Inclination
51.8993°
Eccentricity
0.0000348
Mean motion
14.79935164 rev/d
Perigee alt
629.3 km
Apogee alt
629.8 km
Semi-major
7,007.7 km
B*
3.0681e-4
RAAN
5.8894°
Arg perigee
126.6702°
Mean anomaly
233.4293°
Rev number
6,199

§ Raw data

KUIPER-001021 65140U 25171J   26264.78944735  .00002119  00000+0  30681-3 0  99922 65140  51.8993   5.8894 0000348 126.6702 233.4293 14.79935164 61996

JSON: /api/v1/satellites/65140 · /tle

For live sub-satellite position, see the globe view (requires WebGL).

§ Visibility from observer

Set your observer location to see the next 7 days of passes ≥ 10°. The values pass through the URL so the page stays shareable.

No JS? Fill the form by hand. The geolocation button needs JavaScript.